^^
Saratoga-Weather Station Historical Data
Daily Summary for January 24, 2021 Units:  Metric    English   Both
Daily Weekly Monthly Yearly Custom
  High: Low: Average:
Temperature: 3.2 °C 0.7 °C 1.5 °C
Dew Point: 0.9 °C -1.3 °C -0.5 °C
Humidity: 94% 74% 86%
Wind Speed: 25.9km/h 0km/h 6.3km/h
Wind Gust: 32.2km/h - -
Wind- - SW
Pressure: 1002.7 hPa 992.9 hPa -
Precipitation: 0.2 mm    
Historical Graphs
 
 
Tabular Data for January 24, 2021
Time Temperature Dew Point Pressure Wind Wind Speed Wind Gust Humidity Rainfall Rate (Hourly) solar
00:04 1.9 °C 0.9 °C 992.9 hPa West 11.1 km/h 17.7 km/h 93% 0.8 mm 0 W/m2
00:09 1.8 °C 0.8 °C 993.2 hPa WNW 6.4 km/h 25.7 km/h 93% 0.5 mm 0 W/m2
00:14 1.8 °C 0.8 °C 993.2 hPa WNW 24.1 km/h 25.7 km/h 93% 0.5 mm 0 W/m2
00:19 1.7 °C 0.7 °C 993.2 hPa WNW 16.3 km/h 16.1 km/h 93% 0.2 mm 0 W/m2
00:24 1.7 °C 0.7 °C 993.6 hPa WNW 16.3 km/h 25.7 km/h 93% 0.2 mm 0 W/m2
00:29 1.6 °C 0.6 °C 993.6 hPa WSW 11.1 km/h 20.9 km/h 93% 0.0 mm 0 W/m2
00:34 1.6 °C 0.7 °C 993.6 hPa West 9.7 km/h 20.9 km/h 94% 0.2 mm 0 W/m2
00:39 1.6 °C 0.6 °C 993.6 hPa West 16.3 km/h 16.1 km/h 93% 0.2 mm 0 W/m2
00:44 1.5 °C 0.6 °C 993.6 hPa SW 6.4 km/h 24.1 km/h 94% 0.2 mm 0 W/m2
00:49 1.6 °C 0.7 °C 993.6 hPa WNW 19.5 km/h 29 km/h 94% 0.2 mm 0 W/m2
00:54 1.6 °C 0.6 °C 993.9 hPa West 17.7 km/h 30.6 km/h 93% 0.2 mm 0 W/m2
00:59 1.7 °C 0.7 °C 993.9 hPa WNW 20.9 km/h 27.4 km/h 93% 0.2 mm 0 W/m2
01:04 1.7 °C 0.7 °C 994.2 hPa NW 25.9 km/h 30.6 km/h 93% 0.2 mm 0 W/m2
01:09 1.8 °C 0.6 °C 994.2 hPa NW 11.1 km/h 20.9 km/h 92% 0.2 mm 0 W/m2
01:14 1.8 °C 0.6 °C 994.2 hPa WNW 6.4 km/h 14.5 km/h 92% 0.2 mm 0 W/m2
01:19 1.8 °C 0.6 °C 994.2 hPa WNW 13 km/h 20.9 km/h 92% 0.2 mm 0 W/m2
01:24 1.8 °C 0.6 °C 994.2 hPa WNW 16.3 km/h 24.1 km/h 92% 0.2 mm 0 W/m2
01:29 1.8 °C 0.5 °C 994.2 hPa West 13 km/h 16.1 km/h 91% 0.2 mm 0 W/m2
01:34 1.8 °C 0.5 °C 994.6 hPa NW 13 km/h 25.7 km/h 91% 0.0 mm 0 W/m2
01:39 1.8 °C 0.5 °C 994.6 hPa SW 9.7 km/h 19.3 km/h 91% 0.0 mm 0 W/m2
01:44 1.7 °C 0.4 °C 994.9 hPa West 14.3 km/h 24.1 km/h 91% 0.0 mm 0 W/m2
01:49 1.7 °C 0.4 °C 994.9 hPa WNW 13 km/h 29 km/h 91% 0.0 mm 0 W/m2
01:54 1.7 °C 0.2 °C 994.9 hPa WSW 7.9 km/h 19.3 km/h 90% 0.0 mm 0 W/m2
01:59 1.7 °C 0.2 °C 994.9 hPa WSW 11.1 km/h 29 km/h 90% 0.0 mm 0 W/m2
02:04 1.6 °C 0.1 °C 994.9 hPa WSW 24.1 km/h 24.1 km/h 90% 0.0 mm 0 W/m2
02:09 1.6 °C 0 °C 995.3 hPa WSW 16.3 km/h 19.3 km/h 89% 0.0 mm 0 W/m2
02:14 1.6 °C 0 °C 995.3 hPa NW 14.3 km/h 19.3 km/h 89% 0.0 mm 0 W/m2
02:19 1.6 °C 0.1 °C 995.3 hPa WNW 7.9 km/h 20.9 km/h 90% 0.0 mm 0 W/m2
02:25 1.6 °C 0 °C 995.3 hPa West 11.1 km/h 24.1 km/h 89% 0.0 mm 0 W/m2
02:30 1.5 °C -0.1 °C 995.3 hPa WNW 14.3 km/h 22.5 km/h 89% 0.0 mm 0 W/m2
02:35 1.4 °C -0.2 °C 995.6 hPa WNW 13 km/h 20.9 km/h 89% 0.0 mm 0 W/m2
02:40 1.4 °C -0.2 °C 995.6 hPa West 13 km/h 22.5 km/h 89% 0.0 mm 0 W/m2
02:45 1.4 °C -0.2 °C 995.9 hPa WNW 11.1 km/h 20.9 km/h 89% 0.0 mm 0 W/m2
02:50 1.4 °C -0.2 °C 995.9 hPa WSW 13 km/h 20.9 km/h 89% 0.0 mm 0 W/m2
02:55 1.3 °C -0.3 °C 995.9 hPa WNW 11.1 km/h 17.7 km/h 89% 0.0 mm 0 W/m2
03:00 1.3 °C -0.3 °C 995.9 hPa WNW 14.3 km/h 16.1 km/h 89% 0.0 mm 0 W/m2
03:05 1.3 °C -0.3 °C 995.9 hPa WNW 14.3 km/h 16.1 km/h 89% 0.0 mm 0 W/m2
03:10 1.3 °C -0.3 °C 996.3 hPa NW 7.9 km/h 24.1 km/h 89% 0.0 mm 0 W/m2
03:15 1.3 °C -0.3 °C 996.3 hPa West 14.3 km/h 16.1 km/h 89% 0.0 mm 0 W/m2
03:20 1.3 °C -0.3 °C 996.3 hPa WSW 6.4 km/h 22.5 km/h 89% 0.0 mm 0 W/m2
03:25 1.3 °C -0.3 °C 996.3 hPa WSW 11.1 km/h 17.7 km/h 89% 0.0 mm 0 W/m2
03:30 1.2 °C -0.4 °C 996.3 hPa West 9.7 km/h 22.5 km/h 89% 0.0 mm 0 W/m2
03:35 1.2 °C -0.4 °C 996.6 hPa WNW 14.3 km/h 19.3 km/h 89% 0.0 mm 0 W/m2
03:40 1.2 °C -0.6 °C 996.6 hPa WSW 7.9 km/h 19.3 km/h 88% 0.0 mm 0 W/m2
03:45 1.1 °C -0.5 °C 996.6 hPa West 13 km/h 19.3 km/h 89% 0.0 mm 0 W/m2
03:50 1.1 °C -0.7 °C 997.0 hPa WSW 11.1 km/h 29 km/h 88% 0.0 mm 0 W/m2
03:55 1.1 °C -0.7 °C 997.0 hPa West 16.3 km/h 17.7 km/h 88% 0.0 mm 0 W/m2
04:00 1.1 °C -0.7 °C 997.0 hPa West 16.3 km/h 29 km/h 88% 0.0 mm 0 W/m2
04:05 1 °C -0.8 °C 997.0 hPa West 11.1 km/h 14.5 km/h 88% 0.0 mm 0 W/m2
04:10 0.9 °C -0.9 °C 997.0 hPa WSW 7.9 km/h 14.5 km/h 88% 0.0 mm 0 W/m2
04:15 0.9 °C -0.9 °C 997.3 hPa West 4.7 km/h 20.9 km/h 88% 0.0 mm 0 W/m2
04:20 0.9 °C -0.9 °C 997.3 hPa WNW 14.3 km/h 19.3 km/h 88% 0.0 mm 0 W/m2
04:25 0.9 °C -0.9 °C 997.3 hPa West 4.7 km/h 16.1 km/h 88% 0.0 mm 0 W/m2
04:30 1 °C -0.8 °C 997.3 hPa NW 14.3 km/h 20.9 km/h 88% 0.0 mm 0 W/m2
04:35 1 °C -0.8 °C 997.6 hPa WSW 14.3 km/h 16.1 km/h 88% 0.0 mm 0 W/m2
04:40 1 °C -0.8 °C 997.6 hPa West 14.3 km/h 32.2 km/h 88% 0.0 mm 0 W/m2
04:45 1 °C -0.9 °C 997.6 hPa West 11.1 km/h 17.7 km/h 87% 0.0 mm 0 W/m2
04:50 1 °C -0.9 °C 997.6 hPa WNW 7.9 km/h 27.4 km/h 87% 0.0 mm 0 W/m2
04:55 1 °C -0.9 °C 998.0 hPa WNW 7.9 km/h 16.1 km/h 87% 0.0 mm 0 W/m2
05:00 1.1 °C -0.8 °C 998.0 hPa West 4.7 km/h 16.1 km/h 87% 0.0 mm 0 W/m2
05:05 1.1 °C -0.8 °C 998.0 hPa WNW 6.4 km/h 19.3 km/h 87% 0.0 mm 0 W/m2
05:10 1.1 °C -1 °C 998.0 hPa West 14.3 km/h 22.5 km/h 86% 0.0 mm 0 W/m2
05:15 1.1 °C -1 °C 998.0 hPa WNW 11.1 km/h 24.1 km/h 86% 0.0 mm 0 W/m2
05:20 1.1 °C -0.8 °C 998.3 hPa WSW 4.7 km/h 14.5 km/h 87% 0.0 mm 0 W/m2
05:25 1.1 °C -0.8 °C 998.3 hPa NW 6.4 km/h 24.1 km/h 87% 0.0 mm 0 W/m2
05:30 1 °C -0.9 °C 998.3 hPa WSW 11.1 km/h 17.7 km/h 87% 0.0 mm 0 W/m2
05:35 1 °C -0.9 °C 998.3 hPa WNW 14.3 km/h 22.5 km/h 87% 0.0 mm 0 W/m2
05:40 1 °C -0.9 °C 998.6 hPa WSW 7.9 km/h 17.7 km/h 87% 0.0 mm 0 W/m2
05:45 1 °C -0.9 °C 998.6 hPa West 16.3 km/h 17.7 km/h 87% 0.0 mm 0 W/m2
05:50 1 °C -0.9 °C 998.6 hPa West 6.4 km/h 14.5 km/h 87% 0.0 mm 0 W/m2
05:55 0.9 °C -1 °C 998.6 hPa WNW 11.1 km/h 11.3 km/h 87% 0.0 mm 0 W/m2
06:00 1 °C -1.1 °C 998.6 hPa SW 11.1 km/h 16.1 km/h 86% 0.0 mm 0 W/m2
06:05 1 °C -0.9 °C 998.6 hPa West 3.2 km/h 12.9 km/h 87% 0.0 mm 0 W/m2
06:10 1 °C -0.9 °C 998.6 hPa West 4.7 km/h 14.5 km/h 87% 0.0 mm 0 W/m2
06:15 1.1 °C -0.8 °C 998.6 hPa West 9.7 km/h 19.3 km/h 87% 0.0 mm 0 W/m2
06:20 1 °C -0.9 °C 999.0 hPa NW 13 km/h 19.3 km/h 87% 0.0 mm 0 W/m2
06:26 1 °C -0.9 °C 999.0 hPa WNW 7.9 km/h 12.9 km/h 87% 0.0 mm 0 W/m2
06:31 1 °C -0.8 °C 999.0 hPa West 6.4 km/h 17.7 km/h 88% 0.0 mm 0 W/m2
06:36 1 °C -0.8 °C 999.0 hPa WNW 4.7 km/h 19.3 km/h 88% 0.0 mm 0 W/m2
06:41 1.1 °C -0.8 °C 999.0 hPa WSW 14.3 km/h 27.4 km/h 87% 0.0 mm 0 W/m2
06:46 1.1 °C -0.8 °C 999.3 hPa WNW 16.3 km/h 19.3 km/h 87% 0.0 mm 0 W/m2
06:51 1.1 °C -0.8 °C 999.0 hPa West 14.3 km/h 27.4 km/h 87% 0.0 mm 0 W/m2
06:56 1.1 °C -0.8 °C 999.0 hPa West 14.3 km/h 17.7 km/h 87% 0.0 mm 0 W/m2
07:01 1.1 °C -0.8 °C 999.0 hPa West 9.7 km/h 14.5 km/h 87% 0.0 mm 0 W/m2
07:06 1.1 °C -0.8 °C 999.3 hPa WSW 7.9 km/h 19.3 km/h 87% 0.0 mm 0 W/m2
07:11 1 °C -0.9 °C 999.0 hPa WSW 13 km/h 27.4 km/h 87% 0.0 mm 0 W/m2
07:16 1 °C -0.9 °C 999.3 hPa WSW 19.5 km/h 20.9 km/h 87% 0.0 mm 0 W/m2
07:21 1 °C -0.8 °C 999.3 hPa WNW 4.7 km/h 27.4 km/h 88% 0.0 mm 0 W/m2
07:26 0.9 °C -0.9 °C 999.3 hPa West 11.1 km/h 19.3 km/h 88% 0.0 mm 0 W/m2
07:31 0.9 °C -0.9 °C 999.7 hPa WSW 17.7 km/h 25.7 km/h 88% 0.0 mm 0 W/m2
07:36 0.9 °C -0.9 °C 999.7 hPa WSW 6.4 km/h 16.1 km/h 88% 0.0 mm 0 W/m2
07:41 0.9 °C -0.9 °C 999.7 hPa NW 11.1 km/h 25.7 km/h 88% 0.0 mm 0 W/m2
07:46 0.9 °C -0.9 °C 999.7 hPa NNW 7.9 km/h 17.7 km/h 88% 0.0 mm 0 W/m2
07:51 0.9 °C -0.9 °C 999.7 hPa NW 9.7 km/h 24.1 km/h 88% 0.0 mm 0 W/m2
07:56 0.8 °C -1 °C 999.7 hPa West 13 km/h 19.3 km/h 88% 0.0 mm 0 W/m2
08:01 0.8 °C -0.8 °C 999.7 hPa West 11.1 km/h 20.9 km/h 89% 0.0 mm 0 W/m2
08:06 0.8 °C -0.8 °C 1000.0 hPa SW 11.1 km/h 16.1 km/h 89% 0.0 mm 0 W/m2
08:11 0.8 °C -0.8 °C 1000.0 hPa NW 4.7 km/h 20.9 km/h 89% 0.0 mm 0 W/m2
08:16 0.8 °C -0.8 °C 1000.0 hPa West 9.7 km/h 14.5 km/h 89% 0.0 mm 0 W/m2
08:21 0.8 °C -0.8 °C 1000.0 hPa WSW 14.3 km/h 19.3 km/h 89% 0.0 mm 0 W/m2
08:26 0.8 °C -1 °C 1000.3 hPa WSW 14.3 km/h 20.9 km/h 88% 0.0 mm 5 W/m2
08:31 0.8 °C -1 °C 1000.3 hPa West 6.4 km/h 16.1 km/h 88% 0.0 mm 7 W/m2
08:36 0.8 °C -1 °C 1000.3 hPa West 6.4 km/h 12.9 km/h 88% 0.0 mm 9 W/m2
08:41 0.7 °C -1.1 °C 1000.3 hPa WNW 9.7 km/h 12.9 km/h 88% 0.0 mm 11 W/m2
08:46 0.7 °C -1.1 °C 1000.3 hPa SSW 17.7 km/h 17.7 km/h 88% 0.0 mm 12 W/m2
08:51 0.7 °C -1.1 °C 1000.7 hPa WNW 7.9 km/h 17.7 km/h 88% 0.0 mm 23 W/m2
08:56 0.7 °C -1.1 °C 1000.7 hPa West 14.3 km/h 22.5 km/h 88% 0.0 mm 16 W/m2
09:01 0.8 °C -1 °C 1000.7 hPa WSW 4.7 km/h 19.3 km/h 88% 0.0 mm 14 W/m2
09:06 0.8 °C -1 °C 1001.0 hPa WSW 6.4 km/h 22.5 km/h 88% 0.0 mm 21 W/m2
09:11 0.8 °C -1.1 °C 1001.0 hPa West 6.4 km/h 19.3 km/h 87% 0.0 mm 26 W/m2
09:16 0.8 °C -1.1 °C 1001.0 hPa WNW 3.2 km/h 8 km/h 87% 0.0 mm 21 W/m2
09:21 0.8 °C -1.1 °C 1001.0 hPa WNW 14.3 km/h 17.7 km/h 87% 0.0 mm 19 W/m2
09:26 0.8 °C -1.3 °C 1001.4 hPa West 4.7 km/h 11.3 km/h 86% 0.0 mm 26 W/m2
09:31 0.8 °C -1.1 °C 1001.4 hPa West 9.7 km/h 17.7 km/h 87% 0.0 mm 35 W/m2
09:36 0.7 °C -1.2 °C 1001.4 hPa West 9.7 km/h 14.5 km/h 87% 0.0 mm 32 W/m2
09:41 0.8 °C -1 °C 1001.4 hPa WNW 13 km/h 17.7 km/h 88% 0.0 mm 42 W/m2
09:46 0.8 °C -1 °C 1001.4 hPa WSW 3.2 km/h 16.1 km/h 88% 0.0 mm 44 W/m2
09:51 0.8 °C -1 °C 1001.4 hPa NW 3.2 km/h 14.5 km/h 88% 0.0 mm 58 W/m2
09:56 0.9 °C -1 °C 1001.7 hPa West 4.7 km/h 17.7 km/h 87% 0.0 mm 60 W/m2
10:01 0.9 °C -1 °C 1001.7 hPa West 1.4 km/h 11.3 km/h 87% 0.0 mm 74 W/m2
10:06 0.9 °C -1 °C 1001.7 hPa WNW 14.3 km/h 20.9 km/h 87% 0.0 mm 98 W/m2
10:11 0.9 °C -1.2 °C 1002.0 hPa West 1.4 km/h 9.7 km/h 86% 0.0 mm 65 W/m2
10:16 1 °C -1.1 °C 1002.0 hPa WSW 1.4 km/h 11.3 km/h 86% 0.0 mm 79 W/m2
10:21 1 °C -1.1 °C 1002.0 hPa West 3.2 km/h 4.8 km/h 86% 0.0 mm 111 W/m2
10:26 1 °C -1.1 °C 1002.0 hPa NW 4.7 km/h 12.9 km/h 86% 0.0 mm 98 W/m2
10:31 1 °C -1.1 °C 1002.0 hPa WNW 4.7 km/h 9.7 km/h 86% 0.0 mm 58 W/m2
10:36 1 °C -1.1 °C 1002.0 hPa WSW 1.4 km/h 4.8 km/h 86% 0.0 mm 39 W/m2
10:41 1 °C -1.1 °C 1002.4 hPa NW 3.2 km/h 3.2 km/h 86% 0.0 mm 60 W/m2
10:46 1.1 °C -1 °C 1002.4 hPa WNW 3.2 km/h 8 km/h 86% 0.0 mm 35 W/m2
10:51 1 °C -0.9 °C 1002.4 hPa WSW 4.7 km/h 12.9 km/h 87% 0.0 mm 44 W/m2
10:56 1 °C -0.9 °C 1002.4 hPa NW 1.4 km/h 6.4 km/h 87% 0.0 mm 54 W/m2
11:01 1 °C -0.9 °C 1002.4 hPa West 6.4 km/h 12.9 km/h 87% 0.0 mm 77 W/m2
11:06 1.1 °C -0.8 °C 1002.4 hPa WSW 3.2 km/h 6.4 km/h 87% 0.0 mm 118 W/m2
11:11 1.1 °C -0.8 °C 1002.4 hPa WNW 4.7 km/h 12.9 km/h 87% 0.0 mm 91 W/m2
11:16 1.1 °C -1 °C 1002.7 hPa WNW 4.7 km/h 16.1 km/h 86% 0.0 mm 83 W/m2
11:21 1.1 °C -1 °C 1002.7 hPa WNW 4.7 km/h 4.8 km/h 86% 0.0 mm 79 W/m2
11:26 1.2 °C -0.7 °C 1002.7 hPa NNW 4.7 km/h 16.1 km/h 87% 0.0 mm 102 W/m2
11:31 1.2 °C -0.7 °C 1002.7 hPa WNW 6.4 km/h 8 km/h 87% 0.0 mm 88 W/m2
11:36 1.2 °C -0.9 °C 1002.7 hPa NW 3.2 km/h 12.9 km/h 86% 0.0 mm 142 W/m2
11:41 1.2 °C -0.9 °C 1002.7 hPa WSW 4.7 km/h 11.3 km/h 86% 0.0 mm 135 W/m2
11:46 1.3 °C -0.8 °C 1002.7 hPa WNW 7.9 km/h 11.3 km/h 86% 0.0 mm 165 W/m2
11:51 1.3 °C -0.9 °C 1002.7 hPa NW 1.4 km/h 6.4 km/h 85% 0.0 mm 144 W/m2
11:56 1.4 °C -0.8 °C 1002.7 hPa West 4.7 km/h 8 km/h 85% 0.0 mm 121 W/m2
12:01 1.4 °C -0.8 °C 1002.7 hPa SSW 4.7 km/h 25.7 km/h 85% 0.0 mm 127 W/m2
12:06 1.4 °C -1 °C 1002.7 hPa WNW 4.7 km/h 9.7 km/h 84% 0.0 mm 128 W/m2
12:11 1.4 °C -1 °C 1002.7 hPa NW 7.9 km/h 25.7 km/h 84% 0.0 mm 105 W/m2
12:16 1.4 °C -1 °C 1002.7 hPa NW 4.7 km/h 11.3 km/h 84% 0.0 mm 97 W/m2
12:21 1.5 °C -0.7 °C 1002.7 hPa West 4.7 km/h 14.5 km/h 85% 0.0 mm 185 W/m2
12:26 1.7 °C -0.6 °C 1002.7 hPa NW 4.7 km/h 19.3 km/h 85% 0.0 mm 244 W/m2
12:31 1.8 °C -0.6 °C 1002.7 hPa WNW 4.7 km/h 8 km/h 84% 0.0 mm 207 W/m2
12:36 1.9 °C -0.5 °C 1002.4 hPa West 4.7 km/h 6.4 km/h 84% 0.0 mm 160 W/m2
12:41 2 °C -0.6 °C 1002.4 hPa West 3.2 km/h 6.4 km/h 83% 0.0 mm 91 W/m2
12:46 1.9 °C -1 °C 1002.4 hPa WNW 4.7 km/h 16.1 km/h 81% 0.0 mm 83 W/m2
12:51 1.8 °C -0.9 °C 1002.4 hPa WSW 4.7 km/h 16.1 km/h 82% 0.0 mm 98 W/m2
12:56 1.8 °C -0.9 °C 1002.4 hPa NNW 1.4 km/h 4.8 km/h 82% 0.0 mm 107 W/m2
13:01 1.8 °C -0.8 °C 1002.4 hPa WNW 4.7 km/h 16.1 km/h 83% 0.0 mm 109 W/m2
13:06 1.9 °C -0.7 °C 1002.4 hPa SW 3.2 km/h 11.3 km/h 83% 0.0 mm 169 W/m2
13:11 2.1 °C -0.7 °C 1002.4 hPa WNW 3.2 km/h 16.1 km/h 82% 0.0 mm 139 W/m2
13:17 2.2 °C -0.6 °C 1002.0 hPa WSW 4.7 km/h 6.4 km/h 82% 0.0 mm 97 W/m2
13:22 2.3 °C -0.5 °C 1002.0 hPa WNW 1.4 km/h 8 km/h 82% 0.0 mm 102 W/m2
13:27 2.3 °C -0.6 °C 1002.0 hPa WSW 4.7 km/h 8 km/h 81% 0.0 mm 109 W/m2
13:32 2.3 °C -0.5 °C 1002.0 hPa NW 1.4 km/h 3.2 km/h 82% 0.0 mm 135 W/m2
13:37 2.4 °C -0.4 °C 1002.0 hPa WNW 3.2 km/h 4.8 km/h 82% 0.0 mm 118 W/m2
13:42 2.5 °C -0.3 °C 1002.0 hPa WNW 1.4 km/h 3.2 km/h 82% 0.0 mm 144 W/m2
13:47 2.6 °C -0.2 °C 1002.0 hPa WSW 1.4 km/h 4.8 km/h 82% 0.0 mm 137 W/m2
13:52 2.7 °C -0.1 °C 1001.7 hPa Calm   1.6 km/h 82% 0.0 mm 125 W/m2
13:57 2.8 °C -0.1 °C 1002.0 hPa WNW 3.2 km/h 11.3 km/h 81% 0.0 mm 158 W/m2
14:02 2.8 °C -0.7 °C 1001.7 hPa SW 4.7 km/h 9.7 km/h 78% 0.0 mm 172 W/m2
14:07 2.9 °C -0.7 °C 1001.7 hPa NW 1.4 km/h 1.6 km/h 77% 0.0 mm 169 W/m2
14:12 3.1 °C -0.7 °C 1001.7 hPa WNW 1.4 km/h 11.3 km/h 76% 0.0 mm 156 W/m2
14:17 3.2 °C -0.6 °C 1001.7 hPa NW 11.1 km/h 12.9 km/h 76% 0.0 mm 155 W/m2
14:22 3.2 °C -0.8 °C 1001.7 hPa WNW 4.7 km/h 9.7 km/h 75% 0.0 mm 151 W/m2
14:27 3.2 °C -0.8 °C 1001.7 hPa WNW 6.4 km/h 6.4 km/h 75% 0.0 mm 111 W/m2
14:32 3.2 °C -0.8 °C 1001.4 hPa WNW 3.2 km/h 6.4 km/h 75% 0.0 mm 121 W/m2
14:37 3.2 °C -1 °C 1001.4 hPa NW 6.4 km/h 11.3 km/h 74% 0.0 mm 158 W/m2
14:42 3.2 °C -1 °C 1001.4 hPa WNW 1.4 km/h 3.2 km/h 74% 0.0 mm 151 W/m2
14:47 3.2 °C -0.8 °C 1001.4 hPa WNW 11.1 km/h 12.9 km/h 75% 0.0 mm 113 W/m2
14:52 3.1 °C -1.1 °C 1001.4 hPa Calm   9.7 km/h 74% 0.0 mm 107 W/m2
14:57 3.1 °C -1.1 °C 1001.4 hPa WNW 3.2 km/h 6.4 km/h 74% 0.0 mm 109 W/m2
15:02 3.1 °C -1.1 °C 1001.4 hPa NW 3.2 km/h 4.8 km/h 74% 0.0 mm 91 W/m2
15:07 3.1 °C -0.9 °C 1001.4 hPa NE 4.7 km/h 4.8 km/h 75% 0.0 mm 90 W/m2
15:12 3.1 °C -0.9 °C 1001.4 hPa West 9.7 km/h 11.3 km/h 75% 0.0 mm 77 W/m2
15:17 3.1 °C -0.9 °C 1001.4 hPa NW 3.2 km/h 3.2 km/h 75% 0.0 mm 77 W/m2
15:22 3.1 °C -0.9 °C 1001.4 hPa ENE 1.4 km/h 11.3 km/h 75% 0.0 mm 72 W/m2
15:27 3.1 °C -0.9 °C 1001.4 hPa ENE 3.2 km/h 3.2 km/h 75% 0.0 mm 70 W/m2
15:32 3.1 °C -0.9 °C 1001.4 hPa ENE 1.4 km/h 1.6 km/h 75% 0.0 mm 69 W/m2
15:37 3.1 °C -0.7 °C 1001.0 hPa Calm   3.2 km/h 76% 0.0 mm 54 W/m2
15:42 3.1 °C -0.7 °C 1001.0 hPa ENE 1.4 km/h 3.2 km/h 76% 0.0 mm 53 W/m2
15:47 3.1 °C -0.5 °C 1000.7 hPa NE 1.4 km/h 1.6 km/h 77% 0.0 mm 49 W/m2
15:52 3 °C -0.6 °C 1000.7 hPa ENE 3.2 km/h 3.2 km/h 77% 0.0 mm 49 W/m2
15:57 3 °C -0.8 °C 1000.7 hPa ESE 1.4 km/h 12.9 km/h 76% 0.0 mm 44 W/m2
16:02 3 °C -0.5 °C 1001.0 hPa Calm     78% 0.0 mm 40 W/m2
16:07 2.9 °C -0.6 °C 1001.0 hPa SW 1.4 km/h 12.9 km/h 78% 0.0 mm 39 W/m2
16:12 2.9 °C -0.7 °C 1000.7 hPa West 1.4 km/h 3.2 km/h 77% 0.0 mm 35 W/m2
16:17 2.9 °C -0.7 °C 1000.7 hPa Calm   3.2 km/h 77% 0.0 mm 33 W/m2
16:22 2.9 °C -0.7 °C 1000.7 hPa Calm   1.6 km/h 77% 0.0 mm 35 W/m2
16:28 2.8 °C -0.7 °C 1000.7 hPa ESE 1.4 km/h 3.2 km/h 78% 0.0 mm 40 W/m2
16:32 2.8 °C -0.7 °C 1000.7 hPa East 1.4 km/h 3.2 km/h 78% 0.0 mm 39 W/m2
16:37 2.8 °C -0.7 °C 1000.7 hPa SE 1.4 km/h 3.2 km/h 78% 0.0 mm 28 W/m2
16:42 2.7 °C -0.6 °C 1000.7 hPa Calm   1.6 km/h 79% 0.0 mm 16 W/m2
16:47 2.7 °C -0.8 °C 1000.7 hPa ESE 1.4 km/h 1.6 km/h 78% 0.0 mm 12 W/m2
16:52 2.7 °C -0.4 °C 1000.3 hPa Calm     80% 0.0 mm 12 W/m2
16:57 2.6 °C -0.5 °C 1000.7 hPa Calm     80% 0.0 mm 11 W/m2
17:02 2.6 °C -0.3 °C 1000.7 hPa South 1.4 km/h 3.2 km/h 81% 0.0 mm 9 W/m2
17:07 2.5 °C -0.4 °C 1000.7 hPa Calm   3.2 km/h 81% 0.0 mm 7 W/m2
17:12 2.4 °C -0.5 °C 1000.7 hPa Calm     81% 0.0 mm 5 W/m2
17:17 2.4 °C -0.4 °C 1000.7 hPa Calm   3.2 km/h 82% 0.0 mm 0 W/m2
17:22 2.4 °C -0.7 °C 1000.7 hPa West 1.4 km/h 8 km/h 80% 0.0 mm 0 W/m2
17:27 2.5 °C -0.6 °C 1000.7 hPa Calm   4.8 km/h 80% 0.0 mm 0 W/m2
17:32 2.5 °C -0.8 °C 1000.3 hPa WNW 3.2 km/h 3.2 km/h 79% 0.0 mm 0 W/m2
17:37 2.6 °C -0.7 °C 1000.3 hPa NNW 1.4 km/h 3.2 km/h 79% 0.0 mm 0 W/m2
17:42 2.6 °C -0.7 °C 1000.3 hPa NNW 1.4 km/h 3.2 km/h 79% 0.0 mm 0 W/m2
17:47 2.6 °C -0.7 °C 1000.3 hPa NNE 3.2 km/h 4.8 km/h 79% 0.0 mm 0 W/m2
17:52 2.6 °C -0.7 °C 1000.3 hPa Calm   9.7 km/h 79% 0.0 mm 0 W/m2
17:57 2.5 °C -0.8 °C 1000.3 hPa NNE 3.2 km/h 4.8 km/h 79% 0.0 mm 0 W/m2
18:02 2.5 °C -0.8 °C 1000.3 hPa Calm   9.7 km/h 79% 0.0 mm 0 W/m2
18:07 2.4 °C -0.9 °C 1000.3 hPa NNE 1.4 km/h 3.2 km/h 79% 0.0 mm 0 W/m2
18:12 2.4 °C -0.9 °C 1000.0 hPa NE 1.4 km/h 6.4 km/h 79% 0.0 mm 0 W/m2
18:17 2.3 °C -0.8 °C 1000.0 hPa NE 3.2 km/h 3.2 km/h 80% 0.0 mm 0 W/m2
18:22 2.3 °C -1 °C 1000.0 hPa ENE 1.4 km/h 6.4 km/h 79% 0.0 mm 0 W/m2
18:27 2.3 °C -0.8 °C 1000.0 hPa Calm   3.2 km/h 80% 0.0 mm 0 W/m2
18:32 2.2 °C -0.9 °C 1000.0 hPa Calm   3.2 km/h 80% 0.0 mm 0 W/m2
18:37 2.2 °C -0.7 °C 1000.0 hPa Calm   1.6 km/h 81% 0.0 mm 0 W/m2
18:42 2.1 °C -0.7 °C 1000.0 hPa Calm   1.6 km/h 82% 0.0 mm 0 W/m2
18:47 2 °C -0.6 °C 999.7 hPa ENE 1.4 km/h 3.2 km/h 83% 0.0 mm 0 W/m2
18:52 1.8 °C -0.6 °C 999.7 hPa Calm     84% 0.0 mm 0 W/m2
18:57 1.7 °C -0.7 °C 999.7 hPa Calm   1.6 km/h 84% 0.0 mm 0 W/m2
19:02 1.7 °C -0.6 °C 999.7 hPa Calm   1.6 km/h 85% 0.0 mm 0 W/m2
19:07 1.6 °C -0.5 °C 999.7 hPa Calm   3.2 km/h 86% 0.0 mm 0 W/m2
19:12 1.5 °C -0.6 °C 999.7 hPa Calm   1.6 km/h 86% 0.0 mm 0 W/m2
19:17 1.4 °C -0.7 °C 999.7 hPa Calm   3.2 km/h 86% 0.0 mm 0 W/m2
19:22 1.4 °C -0.7 °C 999.7 hPa Calm     86% 0.0 mm 0 W/m2
19:27 1.6 °C -0.6 °C 999.7 hPa Calm   4.8 km/h 85% 0.0 mm 0 W/m2
19:32 1.7 °C -0.6 °C 999.7 hPa Calm   3.2 km/h 85% 0.0 mm 0 W/m2
19:37 1.7 °C -0.6 °C 999.7 hPa North 3.2 km/h 3.2 km/h 85% 0.0 mm 0 W/m2
19:42 1.8 °C -0.5 °C 999.7 hPa NNW 1.4 km/h 6.4 km/h 85% 0.0 mm 0 W/m2
19:47 1.7 °C -0.4 °C 999.3 hPa NE 3.2 km/h 3.2 km/h 86% 0.0 mm 0 W/m2
19:52 1.7 °C -0.2 °C 999.3 hPa North 3.2 km/h 4.8 km/h 87% 0.0 mm 0 W/m2
19:57 1.6 °C -0.2 °C 999.3 hPa East 1.4 km/h 4.8 km/h 88% 0.0 mm 0 W/m2
20:02 1.5 °C -0.3 °C 999.3 hPa NE 1.4 km/h 4.8 km/h 88% 0.0 mm 0 W/m2
20:07 1.4 °C -0.2 °C 999.3 hPa East 3.2 km/h 6.4 km/h 89% 0.0 mm 0 W/m2
20:12 1.3 °C -0.2 °C 999.0 hPa ENE 3.2 km/h 4.8 km/h 90% 0.0 mm 0 W/m2
20:17 1.2 °C -0.3 °C 999.0 hPa East 1.4 km/h 6.4 km/h 90% 0.0 mm 0 W/m2
20:22 1.2 °C -0.1 °C 998.6 hPa ENE 6.4 km/h 8 km/h 91% 0.0 mm 0 W/m2
20:27 1.1 °C -0.2 °C 998.6 hPa ESE 4.7 km/h 6.4 km/h 91% 0.0 mm 0 W/m2
20:32 1 °C -0.2 °C 998.6 hPa East 4.7 km/h 11.3 km/h 92% 0.0 mm 0 W/m2
20:37 0.9 °C -0.3 °C 998.6 hPa ENE 3.2 km/h 6.4 km/h 92% 0.0 mm 0 W/m2
20:42 0.8 °C -0.2 °C 998.6 hPa ESE 4.7 km/h 12.9 km/h 93% 0.0 mm 0 W/m2
20:47 0.8 °C -0.2 °C 998.6 hPa East 3.2 km/h 9.7 km/h 93% 0.0 mm 0 W/m2
20:52 0.8 °C -0.2 °C 998.6 hPa ENE 3.2 km/h 12.9 km/h 93% 0.0 mm 0 W/m2
20:57 0.8 °C -0.2 °C 998.3 hPa ESE 1.4 km/h 9.7 km/h 93% 0.0 mm 0 W/m2
21:02 0.7 °C -0.2 °C 998.3 hPa ESE 6.4 km/h 6.4 km/h 94% 0.0 mm 0 W/m2
21:07 0.7 °C -0.2 °C 998.3 hPa SE 7.9 km/h 9.7 km/h 94% 0.0 mm 0 W/m2
21:12 0.7 °C -0.2 °C 998.3 hPa SE 7.9 km/h 16.1 km/h 94% 0.0 mm 0 W/m2
21:17 0.7 °C -0.2 °C 998.3 hPa ESE 4.7 km/h 11.3 km/h 94% 0.0 mm 0 W/m2
21:22 0.7 °C -0.2 °C 998.0 hPa East 4.7 km/h 16.1 km/h 94% 0.0 mm 0 W/m2
21:27 0.7 °C -0.2 °C 998.0 hPa ESE 11.1 km/h 11.3 km/h 94% 0.0 mm 0 W/m2
21:32 0.7 °C -0.2 °C 998.0 hPa ENE 3.2 km/h 12.9 km/h 94% 0.0 mm 0 W/m2
21:37 0.7 °C -0.2 °C 998.0 hPa ESE 3.2 km/h 9.7 km/h 94% 0.0 mm 0 W/m2
21:42 0.7 °C -0.2 °C 998.0 hPa NE 7.9 km/h 9.7 km/h 94% 0.0 mm 0 W/m2
21:47 0.7 °C -0.2 °C 998.0 hPa ESE 3.2 km/h 11.3 km/h 94% 0.0 mm 0 W/m2
21:52 0.7 °C -0.2 °C 998.0 hPa NE 4.7 km/h 4.8 km/h 94% 0.0 mm 0 W/m2
21:57 0.7 °C -0.2 °C 998.0 hPa ENE 4.7 km/h 11.3 km/h 94% 0.0 mm 0 W/m2
22:02 0.7 °C -0.2 °C 998.0 hPa ENE 1.4 km/h 4.8 km/h 94% 0.0 mm 0 W/m2
22:07 0.7 °C -0.2 °C 998.0 hPa North 3.2 km/h 8 km/h 94% 0.0 mm 0 W/m2
22:12 0.7 °C -0.2 °C 998.0 hPa ENE 3.2 km/h 3.2 km/h 94% 0.0 mm 0 W/m2
22:17 0.7 °C -0.2 °C 998.0 hPa ENE 1.4 km/h 1.6 km/h 94% 0.0 mm 0 W/m2
22:23 0.7 °C -0.2 °C 998.0 hPa Calm   6.4 km/h 94% 0.0 mm 0 W/m2
22:28 0.7 °C -0.2 °C 998.0 hPa NE 3.2 km/h 6.4 km/h 94% 0.0 mm 0 W/m2
22:33 0.8 °C -0.1 °C 998.0 hPa North 1.4 km/h 3.2 km/h 94% 0.0 mm 0 W/m2
22:38 0.8 °C -0.1 °C 998.0 hPa Calm   3.2 km/h 94% 0.0 mm 0 W/m2
22:43 0.8 °C -0.1 °C 997.6 hPa ESE 1.4 km/h 4.8 km/h 94% 0.0 mm 0 W/m2
22:48 0.8 °C -0.1 °C 998.0 hPa Calm   1.6 km/h 94% 0.0 mm 0 W/m2
22:53 0.9 °C 0 °C 998.0 hPa Calm   1.6 km/h 94% 0.0 mm 0 W/m2
22:58 0.9 °C 0 °C 997.6 hPa NNE 1.4 km/h 3.2 km/h 94% 0.0 mm 0 W/m2
23:03 1 °C 0.1 °C 998.0 hPa Calm   1.6 km/h 94% 0.0 mm 0 W/m2
23:08 1.1 °C 0.2 °C 998.0 hPa ENE 3.2 km/h 4.8 km/h 94% 0.0 mm 0 W/m2
23:13 1.1 °C 0.2 °C 998.0 hPa Calm   3.2 km/h 94% 0.0 mm 0 W/m2
23:18 1.1 °C 0.2 °C 998.0 hPa Calm     94% 0.0 mm 0 W/m2
23:23 1.1 °C 0.2 °C 997.6 hPa East 1.4 km/h 3.2 km/h 94% 0.0 mm 0 W/m2
23:28 1 °C 0.1 °C 997.6 hPa East 3.2 km/h 3.2 km/h 94% 0.0 mm 0 W/m2
23:33 1 °C 0.1 °C 997.6 hPa East 1.4 km/h 3.2 km/h 94% 0.0 mm 0 W/m2
23:38 1 °C 0.1 °C 997.6 hPa ENE 1.4 km/h 6.4 km/h 94% 0.0 mm 0 W/m2
23:43 1 °C 0.1 °C 997.6 hPa ENE 6.4 km/h 6.4 km/h 94% 0.0 mm 0 W/m2
23:48 1 °C 0.1 °C 997.6 hPa ENE 1.4 km/h 4.8 km/h 94% 0.0 mm 0 W/m2
23:53 1 °C 0.1 °C 997.6 hPa Calm   3.2 km/h 94% 0.0 mm 0 W/m2
23:58 1 °C 0.1 °C 997.6 hPa East 3.2 km/h 6.4 km/h 94% 0.0 mm 0 W/m2
Juneau County Weather
Compliments of Weather Underground - 2 mb